Date String (YYYY-MM-DD hh:mm:ss) UTC,Instrument flags,Ambient pressure (hPa),Sample flow (lpm),Bypass flow (lpm),Sample temperature (°C),Ambient temperature (°C),ASC tube jacket temperature (°C),LED temperature (°C),Box temperature (°C),Sample RH (%),Span deviation,Mass concentration (μg/m³),Mass concentration (μg/m³),Mass concentration (μg/m³)
DateTimeUTC,F1_M11,P_M11,Q1_M11,Q2_M11,T1_M11,T2_M11,T3_M11,T4_M11,T5_M11,U1_M11,ZSPAN_M11,X0_M11,X2_M11,X1_M11
2022-07-12 22:00:00,,0828.3,5.00,0.00,29.3,27.4,00.0,38.0,31.0,17.6,0000.0,0018.26,0006.85,0005.72
2022-07-12 22:01:00,,0828.5,5.00,0.00,29.3,27.6,00.0,38.0,31.1,17.5,0000.0,0018.65,0006.83,0005.76
2022-07-12 22:02:00,,0828.3,5.00,0.00,29.3,27.8,00.0,38.0,31.2,17.7,0000.0,0019.21,0006.90,0005.78
2022-07-12 22:03:00,,0828.3,5.01,0.00,29.3,28.0,00.0,38.0,31.2,17.8,0000.0,0018.59,0006.94,0005.82
2022-07-12 22:04:00,,0828.3,5.01,0.00,29.4,28.2,00.0,38.0,31.3,17.5,0000.0,0017.30,0006.93,0005.85
2022-07-12 22:05:00,,0828.4,5.00,0.00,29.4,28.3,00.0,38.1,31.4,17.5,0000.0,0017.23,0006.93,0005.87
2022-07-12 22:06:00,,0828.4,4.99,0.00,29.4,28.1,00.0,38.0,31.4,17.9,0000.0,0017.26,0006.93,0005.89
2022-07-12 22:07:00,,0828.4,5.00,0.00,29.4,27.4,00.0,38.0,31.2,18.0,0000.0,0017.80,0006.96,0005.89
2022-07-12 22:08:00,,0828.4,4.99,0.00,29.4,27.1,00.0,38.0,31.2,18.4,0000.0,0017.84,0006.98,0005.92
2022-07-12 22:09:00,,0828.5,5.00,0.00,29.3,27.2,00.0,38.0,31.1,19.2,0000.0,0017.51,0006.99,0005.95
2022-07-12 22:10:00,,0828.5,5.00,0.00,29.3,27.3,00.0,38.0,31.0,19.9,0000.0,0017.68,0006.98,0005.98
2022-07-12 22:11:00,,0828.5,5.00,0.00,29.3,27.5,00.0,38.0,31.1,22.8,0000.0,0017.90,0007.14,0006.02
2022-07-12 22:12:00,,0828.5,5.00,0.00,29.3,27.7,00.0,38.0,31.1,26.6,0000.0,0023.60,0007.53,0006.07
2022-07-12 22:13:00,,0828.5,5.00,0.00,29.3,27.9,00.0,38.0,31.2,26.6,0000.0,0027.15,0007.73,0006.14
2022-07-12 22:14:00,,0829.0,4.99,0.00,29.3,28.1,00.0,38.0,31.3,23.6,0000.0,0029.87,0007.97,0006.21
2022-07-12 22:15:00,,0828.9,5.01,0.00,29.4,28.2,00.0,38.1,31.3,26.4,0000.0,0030.75,0008.17,0006.28
2022-07-12 22:16:00,,0828.7,5.00,0.00,29.4,28.0,00.0,38.0,31.4,27.8,0000.0,0032.37,0008.65,0006.44
2022-07-12 22:17:00,,0828.8,4.99,0.00,29.4,27.3,00.0,38.0,31.2,23.1,0000.0,0034.19,0008.90,0006.59
2022-07-12 22:18:00,,0829.1,5.02,0.00,29.3,26.9,00.0,38.0,31.1,22.3,0000.0,0033.68,0009.04,0006.72
2022-07-12 22:19:00,,0829.3,5.00,0.00,29.3,26.9,00.0,38.0,31.0,21.2,0000.0,0033.02,0009.09,0006.77
2022-07-12 22:20:00,,0829.2,5.00,0.00,29.2,27.0,00.0,37.9,31.0,21.2,0000.0,0032.60,0009.07,0006.78
2022-07-12 22:21:00,,0829.2,4.99,0.00,29.2,27.2,00.0,37.9,31.0,21.0,0000.0,0031.49,0009.06,0006.76
2022-07-12 22:22:00,,0829.3,4.99,0.00,29.2,27.4,00.0,37.9,31.0,21.5,0000.0,0030.59,0008.96,0006.71
2022-07-12 22:23:00,,0829.3,5.01,0.00,29.2,27.6,00.0,37.9,31.1,21.9,0000.0,0026.14,0008.60,0006.68
2022-07-12 22:24:00,,0829.3,4.99,0.00,29.2,27.8,00.0,37.9,31.2,22.5,0000.0,0020.92,0008.35,0006.62
2022-07-12 22:25:00,,0829.3,5.00,0.00,29.3,27.9,00.0,38.0,31.2,21.8,0000.0,0017.72,0008.13,0006.55
2022-07-12 22:26:00,,0829.5,5.02,0.00,29.3,28.1,00.0,38.0,31.3,22.0,0000.0,0016.88,0007.96,0006.50
2022-07-12 22:27:00,,0829.5,5.00,0.00,29.3,28.2,00.0,38.0,31.3,22.2,0000.0,0016.56,0007.54,0006.37
2022-07-12 22:28:00,,0829.5,4.99,0.00,29.4,28.2,00.0,38.0,31.3,22.4,0000.0,0014.54,0007.26,0006.24
2022-07-12 22:29:00,,0829.5,5.00,0.00,29.3,27.4,00.0,37.9,31.2,22.4,0000.0,0014.34,0007.17,0006.16
2022-07-12 22:30:00,,0829.4,4.99,0.00,29.3,26.8,00.0,37.9,31.1,22.5,0000.0,0014.13,0007.11,0006.12
2022-07-12 22:31:00,,0829.3,5.01,0.00,29.2,26.7,00.0,37.9,31.0,22.3,0000.0,0014.46,0007.16,0006.09
2022-07-12 22:32:00,,0829.2,5.00,0.00,29.1,26.7,00.0,37.9,30.9,22.6,0000.0,0014.78,0007.18,0006.06
2022-07-12 22:33:00,,0829.2,5.00,0.00,29.1,26.9,00.0,37.9,30.9,21.8,0000.0,0014.66,0007.13,0006.06
2022-07-12 22:34:00,,0829.2,4.99,0.00,29.1,27.1,00.0,37.9,31.0,22.1,0000.0,0014.04,0007.03,0006.00
2022-07-12 22:35:00,,0829.2,5.01,0.00,29.1,27.3,00.0,37.9,31.0,22.7,0000.0,0013.77,0007.02,0005.96
2022-07-12 22:36:00,,0829.1,5.00,0.00,29.1,27.5,00.0,37.9,31.1,24.7,0000.0,0013.92,0007.05,0005.94
2022-07-12 22:37:00,,0828.9,5.01,0.00,29.2,27.7,00.0,37.9,31.1,25.9,0000.0,0014.02,0007.16,0005.95
2022-07-12 22:38:00,,0829.0,5.00,0.00,29.2,27.9,00.0,37.9,31.2,21.4,0000.0,0013.15,0007.17,0005.94
2022-07-12 22:39:00,,0829.1,5.00,0.00,29.2,28.0,00.0,37.9,31.2,23.3,0000.0,0013.08,0007.12,0005.90
2022-07-12 22:40:00,,0828.9,5.00,0.00,29.3,28.2,00.0,37.9,31.3,22.6,0000.0,0012.78,0007.09,0005.84
2022-07-12 22:41:00,,0828.9,5.01,0.00,29.3,28.3,00.0,38.0,31.3,22.9,0000.0,0013.08,0007.05,0005.79
2022-07-12 22:42:00,,0828.8,4.99,0.00,29.3,28.3,00.0,38.0,31.4,24.1,0000.0,0012.75,0006.95,0005.77
2022-07-12 22:43:00,,0828.7,4.99,0.00,29.3,27.8,00.0,37.9,31.2,22.6,0000.0,0012.34,0006.84,0005.76
2022-07-12 22:44:00,,0828.7,5.00,0.00,29.3,27.2,00.0,37.9,31.1,22.7,0000.0,0012.46,0006.90,0005.77
2022-07-12 22:45:00,,0828.8,5.00,0.00,29.3,27.0,00.0,37.9,31.0,23.4,0000.0,0012.97,0007.00,0005.80
2022-07-12 22:46:00,,0829.1,4.99,0.00,29.2,27.1,00.0,37.9,30.9,24.6,0000.0,0013.78,0007.05,0005.82
2022-07-12 22:47:00,,0828.8,5.00,0.00,29.2,27.2,00.0,37.9,31.0,25.1,0000.0,0013.58,0006.98,0005.81
2022-07-12 22:48:00,,0828.9,4.99,0.00,29.2,27.4,00.0,37.9,31.1,23.8,0000.0,0013.75,0006.77,0005.73
2022-07-12 22:49:00,,0828.8,5.00,0.00,29.2,27.6,00.0,37.9,31.1,23.1,0000.0,0013.36,0006.60,0005.62
2022-07-12 22:50:00,,0828.6,4.99,0.00,29.2,27.8,00.0,37.9,31.2,24.4,0000.0,0013.23,0006.50,0005.55
2022-07-12 22:51:00,,0828.8,5.01,0.00,29.2,27.9,00.0,37.9,31.2,23.3,0000.0,0012.81,0006.33,0005.45
2022-07-12 22:52:00,,0828.9,5.00,0.00,29.3,28.1,00.0,37.9,31.3,23.0,0000.0,0012.03,0006.14,0005.33
2022-07-12 22:53:00,,0828.8,5.00,0.00,29.3,28.2,00.0,38.0,31.3,23.8,0000.0,0011.91,0005.97,0005.19
2022-07-12 22:54:00,,0828.5,5.01,0.00,29.3,28.3,00.0,38.0,31.4,23.3,0000.0,0011.65,0005.83,0005.06
2022-07-12 22:55:00,,0828.5,5.00,0.00,29.4,28.3,00.0,38.0,31.4,23.3,0000.0,0011.26,0005.62,0004.91
2022-07-12 22:56:00,,0828.5,5.01,0.00,29.4,27.6,00.0,38.0,31.3,22.7,0000.0,0010.72,0005.35,0004.74
2022-07-12 22:57:00,,0828.4,5.00,0.00,29.3,26.9,00.0,37.9,31.1,23.0,0000.0,0009.68,0005.10,0004.59
2022-07-12 22:58:00,,0828.3,5.00,0.00,29.3,26.7,00.0,37.9,31.0,21.7,0000.0,0009.31,0004.90,0004.44
2022-07-12 22:59:00,,0828.3,5.02,0.00,29.2,26.8,00.0,37.9,30.9,23.8,0000.0,0008.46,0004.76,0004.33
